owner,sensor,date,latitude,longitude,vertical_datum,sea_water_practical_salinity,qcFlag 
LUMCON,ioos:station:LUMCON:101:1,2017-02-01T00:00:00Z,29.2533,-90.6633,1.28,6.04,1111122 
LUMCON,ioos:station:LUMCON:101:1,2017-02-01T00:15:00Z,29.2533,-90.6633,1.28,5.94,1111122 
LUMCON,ioos:station:LUMCON:101:1,2017-02-01T00:30:00Z,29.2533,-90.6633,1.28,6.16,1111122 
LUMCON,ioos:station:LUMCON:101:1,2017-02-01T00:45:00Z,29.2533,-90.6633,1.28,6.29,1111122 
LUMCON,ioos:station:LUMCON:101:1,2017-02-01T01:00:00Z,29.2533,-90.6633,1.28,6.43,1111122 
LUMCON,ioos:station:LUMCON:101:1,2017-02-01T01:15:00Z,29.2533,-90.6633,1.28,6.47,1111122 
LUMCON,ioos:station:LUMCON:101:1,2017-02-01T01:30:00Z,29.2533,-90.6633,1.28,6.41,1111122 
LUMCON,ioos:station:LUMCON:101:1,2017-02-01T01:45:00Z,29.2533,-90.6633,1.28,6.36,1111122 
LUMCON,ioos:station:LUMCON:101:1,2017-02-01T02:00:00Z,29.2533,-90.6633,1.28,6.28,1111122 
LUMCON,ioos:station:LUMCON:101:1,2017-02-01T02:15:00Z,29.2533,-90.6633,1.28,6.22,1111122 
LUMCON,ioos:station:LUMCON:101:1,2017-02-01T02:30:00Z,29.2533,-90.6633,1.29,6.38,1111122 
LUMCON,ioos:station:LUMCON:101:1,2017-02-01T02:45:00Z,29.2533,-90.6633,1.29,6.07,1111122 
LUMCON,ioos:station:LUMCON:101:1,2017-02-01T03:00:00Z,29.2533,-90.6633,1.29,6.17,1111122 
LUMCON,ioos:station:LUMCON:101:1,2017-02-01T03:15:00Z,29.2533,-90.6633,1.29,6.29,1111122 
LUMCON,ioos:station:LUMCON:101:1,2017-02-01T03:30:00Z,29.2533,-90.6633,1.29,6.4,1111122 
LUMCON,ioos:station:LUMCON:101:1,2017-02-01T03:45:00Z,29.2533,-90.6633,1.29,7.3,1111122 
LUMCON,ioos:station:LUMCON:101:1,2017-02-01T04:00:00Z,29.2533,-90.6633,1.29,7.45,1111122 
LUMCON,ioos:station:LUMCON:101:1,2017-02-01T04:15:00Z,29.2533,-90.6633,1.3,7.85,1111122 
LUMCON,ioos:station:LUMCON:101:1,2017-02-01T04:30:00Z,29.2533,-90.6633,1.3,7.99,1111122 
LUMCON,ioos:station:LUMCON:101:1,2017-02-01T04:45:00Z,29.2533,-90.6633,1.3,8.09,1111122 
LUMCON,ioos:station:LUMCON:101:1,2017-02-01T05:00:00Z,29.2533,-90.6633,1.3,8.02,1111122 
LUMCON,ioos:station:LUMCON:101:1,2017-02-01T05:15:00Z,29.2533,-90.6633,1.3,7.9,1111122 
LUMCON,ioos:station:LUMCON:101:1,2017-02-01T05:30:00Z,29.2533,-90.6633,1.3,7.85,1111122 
LUMCON,ioos:station:LUMCON:101:1,2017-02-01T05:45:00Z,29.2533,-90.6633,1.3,7.91,1111122 
LUMCON,ioos:station:LUMCON:101:1,2017-02-01T06:00:00Z,29.2533,-90.6633,1.3,8.32,1111122 
LUMCON,ioos:station:LUMCON:101:1,2017-02-01T06:15:00Z,29.2533,-90.6633,1.31,8.46,1111122 
LUMCON,ioos:station:LUMCON:101:1,2017-02-01T06:30:00Z,29.2533,-90.6633,1.31,8.92,1111122 
LUMCON,ioos:station:LUMCON:101:1,2017-02-01T06:45:00Z,29.2533,-90.6633,1.31,9.16,1111122 
LUMCON,ioos:station:LUMCON:101:1,2017-02-01T07:00:00Z,29.2533,-90.6633,1.31,9.29,1111122 
LUMCON,ioos:station:LUMCON:101:1,2017-02-01T07:15:00Z,29.2533,-90.6633,1.31,9.37,1111122 
LUMCON,ioos:station:LUMCON:101:1,2017-02-01T07:30:00Z,29.2533,-90.6633,1.31,9.38,1111122 
LUMCON,ioos:station:LUMCON:101:1,2017-02-01T07:45:00Z,29.2533,-90.6633,1.32,9.41,1111122 
LUMCON,ioos:station:LUMCON:101:1,2017-02-01T08:00:00Z,29.2533,-90.6633,1.32,9.44,1111122 
LUMCON,ioos:station:LUMCON:101:1,2017-02-01T08:15:00Z,29.2533,-90.6633,1.32,9.39,1111122 
LUMCON,ioos:station:LUMCON:101:1,2017-02-01T08:30:00Z,29.2533,-90.6633,1.31,9.08,1111122 
LUMCON,ioos:station:LUMCON:101:1,2017-02-01T08:45:00Z,29.2533,-90.6633,1.3,7.82,1111122 
LUMCON,ioos:station:LUMCON:101:1,2017-02-01T09:00:00Z,29.2533,-90.6633,1.3,7.27,1111122 
LUMCON,ioos:station:LUMCON:101:1,2017-02-01T09:15:00Z,29.2533,-90.6633,1.31,7.01,1111122 
LUMCON,ioos:station:LUMCON:101:1,2017-02-01T09:30:00Z,29.2533,-90.6633,1.3,7.1,1111122 
LUMCON,ioos:station:LUMCON:101:1,2017-02-01T09:45:00Z,29.2533,-90.6633,1.29,6.92,1111122 
LUMCON,ioos:station:LUMCON:101:1,2017-02-01T10:00:00Z,29.2533,-90.6633,1.28,6.79,1111122 
LUMCON,ioos:station:LUMCON:101:1,2017-02-01T10:15:00Z,29.2533,-90.6633,1.27,6.52,1111122 
LUMCON,ioos:station:LUMCON:101:1,2017-02-01T10:30:00Z,29.2533,-90.6633,1.27,6.24,1111122 
LUMCON,ioos:station:LUMCON:101:1,2017-02-01T10:45:00Z,29.2533,-90.6633,1.26,6.08,1111122 
LUMCON,ioos:station:LUMCON:101:1,2017-02-01T11:00:00Z,29.2533,-90.6633,1.26,6.07,1111122 
LUMCON,ioos:station:LUMCON:101:1,2017-02-01T11:15:00Z,29.2533,-90.6633,1.24,5.99,1111122 
LUMCON,ioos:station:LUMCON:101:1,2017-02-01T11:30:00Z,29.2533,-90.6633,1.23,5.96,1111122 
LUMCON,ioos:station:LUMCON:101:1,2017-02-01T11:45:00Z,29.2533,-90.6633,1.23,5.91,1111122 
LUMCON,ioos:station:LUMCON:101:1,2017-02-01T12:00:00Z,29.2533,-90.6633,1.22,5.83,1111122 
LUMCON,ioos:station:LUMCON:101:1,2017-02-01T12:15:00Z,29.2533,-90.6633,1.22,5.76,1111122 
LUMCON,ioos:station:LUMCON:101:1,2017-02-01T12:30:00Z,29.2533,-90.6633,1.21,5.64,1111122 
LUMCON,ioos:station:LUMCON:101:1,2017-02-01T12:45:00Z,29.2533,-90.6633,1.2,5.56,1111122 
LUMCON,ioos:station:LUMCON:101:1,2017-02-01T13:00:00Z,29.2533,-90.6633,1.2,5.43,1111122 
LUMCON,ioos:station:LUMCON:101:1,2017-02-01T13:15:00Z,29.2533,-90.6633,1.19,5.3,1111122 
LUMCON,ioos:station:LUMCON:101:1,2017-02-01T13:30:00Z,29.2533,-90.6633,1.18,5.18,1111122 
LUMCON,ioos:station:LUMCON:101:1,2017-02-01T13:45:00Z,29.2533,-90.6633,1.18,5.08,1111122 
LUMCON,ioos:station:LUMCON:101:1,2017-02-01T14:00:00Z,29.2533,-90.6633,1.17,5.0,1111122 
LUMCON,ioos:station:LUMCON:101:1,2017-02-01T14:15:00Z,29.2533,-90.6633,1.17,4.95,1111122 
LUMCON,ioos:station:LUMCON:101:1,2017-02-01T14:30:00Z,29.2533,-90.6633,1.17,4.96,1111122 
LUMCON,ioos:station:LUMCON:101:1,2017-02-01T14:45:00Z,29.2533,-90.6633,1.17,4.98,1111122 
LUMCON,ioos:station:LUMCON:101:1,2017-02-01T15:00:00Z,29.2533,-90.6633,1.17,5.0,1111122 
LUMCON,ioos:station:LUMCON:101:1,2017-02-01T15:15:00Z,29.2533,-90.6633,1.17,5.04,1111122 
LUMCON,ioos:station:LUMCON:101:1,2017-02-01T15:30:00Z,29.2533,-90.6633,1.17,5.03,1111122 
LUMCON,ioos:station:LUMCON:101:1,2017-02-01T15:45:00Z,29.2533,-90.6633,1.17,5.06,1111122 
LUMCON,ioos:station:LUMCON:101:1,2017-02-01T16:00:00Z,29.2533,-90.6633,1.18,5.02,1111122 
LUMCON,ioos:station:LUMCON:101:1,2017-02-01T16:15:00Z,29.2533,-90.6633,1.19,5.01,1111122 
LUMCON,ioos:station:LUMCON:101:1,2017-02-01T16:30:00Z,29.2533,-90.6633,1.18,5.08,1111122 
LUMCON,ioos:station:LUMCON:101:1,2017-02-01T16:45:00Z,29.2533,-90.6633,1.19,5.32,1111122 
LUMCON,ioos:station:LUMCON:101:1,2017-02-01T17:00:00Z,29.2533,-90.6633,1.19,5.52,1111122 
LUMCON,ioos:station:LUMCON:101:1,2017-02-01T17:15:00Z,29.2533,-90.6633,1.19,5.74,1111122 
LUMCON,ioos:station:LUMCON:101:1,2017-02-01T17:30:00Z,29.2533,-90.6633,1.2,5.72,1111122 
LUMCON,ioos:station:LUMCON:101:1,2017-02-01T17:45:00Z,29.2533,-90.6633,1.21,5.63,1111122 
LUMCON,ioos:station:LUMCON:101:1,2017-02-01T18:00:00Z,29.2533,-90.6633,1.21,6.06,1111122 
LUMCON,ioos:station:LUMCON:101:1,2017-02-01T18:15:00Z,29.2533,-90.6633,1.22,6.26,1111122 
LUMCON,ioos:station:LUMCON:101:1,2017-02-01T18:30:00Z,29.2533,-90.6633,1.23,6.4,1111122 
LUMCON,ioos:station:LUMCON:101:1,2017-02-01T18:45:00Z,29.2533,-90.6633,1.24,6.41,1111122 
LUMCON,ioos:station:LUMCON:101:1,2017-02-01T19:00:00Z,29.2533,-90.6633,1.24,6.42,1111122 
LUMCON,ioos:station:LUMCON:101:1,2017-02-01T19:15:00Z,29.2533,-90.6633,1.25,6.48,1111122 
LUMCON,ioos:station:LUMCON:101:1,2017-02-01T19:30:00Z,29.2533,-90.6633,1.26,6.54,1111122 
LUMCON,ioos:station:LUMCON:101:1,2017-02-01T19:45:00Z,29.2533,-90.6633,1.27,6.58,1111122 
LUMCON,ioos:station:LUMCON:101:1,2017-02-01T20:00:00Z,29.2533,-90.6633,1.27,6.66,1111122 
LUMCON,ioos:station:LUMCON:101:1,2017-02-01T20:15:00Z,29.2533,-90.6633,1.28,6.64,1111122 
LUMCON,ioos:station:LUMCON:101:1,2017-02-01T20:30:00Z,29.2533,-90.6633,1.29,6.83,1111122 
LUMCON,ioos:station:LUMCON:101:1,2017-02-01T20:45:00Z,29.2533,-90.6633,1.29,6.85,1111122 
LUMCON,ioos:station:LUMCON:101:1,2017-02-01T21:00:00Z,29.2533,-90.6633,1.3,6.89,1111122 
LUMCON,ioos:station:LUMCON:101:1,2017-02-01T21:15:00Z,29.2533,-90.6633,1.31,6.95,1111122 
LUMCON,ioos:station:LUMCON:101:1,2017-02-01T21:30:00Z,29.2533,-90.6633,1.31,7.01,1111122 
LUMCON,ioos:station:LUMCON:101:1,2017-02-01T21:45:00Z,29.2533,-90.6633,1.31,7.06,1111122 
LUMCON,ioos:station:LUMCON:101:1,2017-02-01T22:00:00Z,29.2533,-90.6633,1.32,7.09,1111122 
LUMCON,ioos:station:LUMCON:101:1,2017-02-01T22:15:00Z,29.2533,-90.6633,1.33,7.15,1111122 
LUMCON,ioos:station:LUMCON:101:1,2017-02-01T22:30:00Z,29.2533,-90.6633,1.33,7.21,1111122 
LUMCON,ioos:station:LUMCON:101:1,2017-02-01T22:45:00Z,29.2533,-90.6633,1.34,7.26,1111122 
LUMCON,ioos:station:LUMCON:101:1,2017-02-01T23:00:00Z,29.2533,-90.6633,1.34,7.26,1111122 
LUMCON,ioos:station:LUMCON:101:1,2017-02-01T23:15:00Z,29.2533,-90.6633,1.34,7.52,1111122 
LUMCON,ioos:station:LUMCON:101:1,2017-02-01T23:30:00Z,29.2533,-90.6633,1.34,7.59,1111122 
LUMCON,ioos:station:LUMCON:101:1,2017-02-01T23:45:00Z,29.2533,-90.6633,1.34,7.79,1111122 
LUMCON,ioos:station:LUMCON:101:1,2017-02-02T00:00:00Z,29.2533,-90.6633,1.34,7.8,1111122 
LUMCON,ioos:station:LUMCON:101:1,2017-02-02T00:15:00Z,29.2533,-90.6633,1.34,7.78,1111122 
LUMCON,ioos:station:LUMCON:101:1,2017-02-02T00:30:00Z,29.2533,-90.6633,1.33,7.77,1111122 
LUMCON,ioos:station:LUMCON:101:1,2017-02-02T00:45:00Z,29.2533,-90.6633,1.34,7.58,1111122 
LUMCON,ioos:station:LUMCON:101:1,2017-02-02T01:00:00Z,29.2533,-90.6633,1.34,7.51,1111122 
LUMCON,ioos:station:LUMCON:101:1,2017-02-02T01:15:00Z,29.2533,-90.6633,1.32,7.45,1111122 
LUMCON,ioos:station:LUMCON:101:1,2017-02-02T01:30:00Z,29.2533,-90.6633,1.34,7.4,1111122 
LUMCON,ioos:station:LUMCON:101:1,2017-02-02T01:45:00Z,29.2533,-90.6633,1.34,7.49,1111122 
LUMCON,ioos:station:LUMCON:101:1,2017-02-02T02:00:00Z,29.2533,-90.6633,1.33,7.49,1111122 
LUMCON,ioos:station:LUMCON:101:1,2017-02-02T02:15:00Z,29.2533,-90.6633,1.33,7.56,1111122 
LUMCON,ioos:station:LUMCON:101:1,2017-02-02T02:30:00Z,29.2533,-90.6633,1.32,7.54,1111122 
LUMCON,ioos:station:LUMCON:101:1,2017-02-02T02:45:00Z,29.2533,-90.6633,1.32,7.43,1111122 
LUMCON,ioos:station:LUMCON:101:1,2017-02-02T03:00:00Z,29.2533,-90.6633,1.31,7.22,1111122 
LUMCON,ioos:station:LUMCON:101:1,2017-02-02T03:15:00Z,29.2533,-90.6633,1.3,7.16,1111122 
LUMCON,ioos:station:LUMCON:101:1,2017-02-02T03:30:00Z,29.2533,-90.6633,1.31,7.15,1111122 
LUMCON,ioos:station:LUMCON:101:1,2017-02-02T03:45:00Z,29.2533,-90.6633,1.3,7.12,1111122 
LUMCON,ioos:station:LUMCON:101:1,2017-02-02T04:00:00Z,29.2533,-90.6633,1.3,7.07,1111122 
LUMCON,ioos:station:LUMCON:101:1,2017-02-02T04:15:00Z,29.2533,-90.6633,1.3,7.02,1111122 
LUMCON,ioos:station:LUMCON:101:1,2017-02-02T04:30:00Z,29.2533,-90.6633,1.29,7.02,1111122 
LUMCON,ioos:station:LUMCON:101:1,2017-02-02T04:45:00Z,29.2533,-90.6633,1.29,6.98,1111122 
LUMCON,ioos:station:LUMCON:101:1,2017-02-02T05:00:00Z,29.2533,-90.6633,1.28,6.95,1111122 
LUMCON,ioos:station:LUMCON:101:1,2017-02-02T05:15:00Z,29.2533,-90.6633,1.28,6.85,1111122 
LUMCON,ioos:station:LUMCON:101:1,2017-02-02T05:30:00Z,29.2533,-90.6633,1.28,6.73,1111122 
LUMCON,ioos:station:LUMCON:101:1,2017-02-02T05:45:00Z,29.2533,-90.6633,1.28,6.65,1111122 
LUMCON,ioos:station:LUMCON:101:1,2017-02-02T06:00:00Z,29.2533,-90.6633,1.28,6.56,1111122 
LUMCON,ioos:station:LUMCON:101:1,2017-02-02T06:15:00Z,29.2533,-90.6633,1.28,6.47,1111122 
LUMCON,ioos:station:LUMCON:101:1,2017-02-02T06:30:00Z,29.2533,-90.6633,1.27,6.38,1111122 
LUMCON,ioos:station:LUMCON:101:1,2017-02-02T06:45:00Z,29.2533,-90.6633,1.27,6.29,1111122 
LUMCON,ioos:station:LUMCON:101:1,2017-02-02T07:00:00Z,29.2533,-90.6633,1.28,6.22,1111122 
LUMCON,ioos:station:LUMCON:101:1,2017-02-02T07:15:00Z,29.2533,-90.6633,1.28,6.15,1111122 
LUMCON,ioos:station:LUMCON:101:1,2017-02-02T07:30:00Z,29.2533,-90.6633,1.27,6.08,1111122 
LUMCON,ioos:station:LUMCON:101:1,2017-02-02T07:45:00Z,29.2533,-90.6633,1.28,6.01,1111122 
LUMCON,ioos:station:LUMCON:101:1,2017-02-02T08:00:00Z,29.2533,-90.6633,1.28,6.12,1111122 
LUMCON,ioos:station:LUMCON:101:1,2017-02-02T08:15:00Z,29.2533,-90.6633,1.29,6.89,1111122 
LUMCON,ioos:station:LUMCON:101:1,2017-02-02T08:30:00Z,29.2533,-90.6633,1.3,7.25,1111122 
LUMCON,ioos:station:LUMCON:101:1,2017-02-02T08:45:00Z,29.2533,-90.6633,1.3,7.2,1111122 
LUMCON,ioos:station:LUMCON:101:1,2017-02-02T09:00:00Z,29.2533,-90.6633,1.3,7.23,1111122 
LUMCON,ioos:station:LUMCON:101:1,2017-02-02T09:15:00Z,29.2533,-90.6633,1.3,7.57,1111122 
LUMCON,ioos:station:LUMCON:101:1,2017-02-02T09:30:00Z,29.2533,-90.6633,1.31,7.73,1111122 
LUMCON,ioos:station:LUMCON:101:1,2017-02-02T09:45:00Z,29.2533,-90.6633,1.31,7.84,1111122 
LUMCON,ioos:station:LUMCON:101:1,2017-02-02T10:00:00Z,29.2533,-90.6633,1.31,7.86,1111122 
LUMCON,ioos:station:LUMCON:101:1,2017-02-02T10:15:00Z,29.2533,-90.6633,1.31,7.95,1111122 
LUMCON,ioos:station:LUMCON:101:1,2017-02-02T10:30:00Z,29.2533,-90.6633,1.31,8.02,1111122 
LUMCON,ioos:station:LUMCON:101:1,2017-02-02T10:45:00Z,29.2533,-90.6633,1.3,8.06,1111122 
LUMCON,ioos:station:LUMCON:101:1,2017-02-02T11:00:00Z,29.2533,-90.6633,1.3,7.73,1111122 
LUMCON,ioos:station:LUMCON:101:1,2017-02-02T11:15:00Z,29.2533,-90.6633,1.29,7.7,1111122 
LUMCON,ioos:station:LUMCON:101:1,2017-02-02T11:30:00Z,29.2533,-90.6633,1.3,7.28,1111122 
LUMCON,ioos:station:LUMCON:101:1,2017-02-02T11:45:00Z,29.2533,-90.6633,1.31,7.21,1111122 
LUMCON,ioos:station:LUMCON:101:1,2017-02-02T12:00:00Z,29.2533,-90.6633,1.31,7.14,1111122 
LUMCON,ioos:station:LUMCON:101:1,2017-02-02T12:15:00Z,29.2533,-90.6633,1.31,7.1,1111122 
LUMCON,ioos:station:LUMCON:101:1,2017-02-02T12:30:00Z,29.2533,-90.6633,1.3,7.52,1111122 
LUMCON,ioos:station:LUMCON:101:1,2017-02-02T12:45:00Z,29.2533,-90.6633,1.3,7.72,1111122 
LUMCON,ioos:station:LUMCON:101:1,2017-02-02T13:00:00Z,29.2533,-90.6633,1.29,7.48,1111122 
LUMCON,ioos:station:LUMCON:101:1,2017-02-02T13:15:00Z,29.2533,-90.6633,1.28,7.24,1111122 
LUMCON,ioos:station:LUMCON:101:1,2017-02-02T13:30:00Z,29.2533,-90.6633,1.29,7.01,1111122 
LUMCON,ioos:station:LUMCON:101:1,2017-02-02T13:45:00Z,29.2533,-90.6633,1.28,6.82,1111122 
LUMCON,ioos:station:LUMCON:101:1,2017-02-02T14:00:00Z,29.2533,-90.6633,1.28,6.76,1111122 
LUMCON,ioos:station:LUMCON:101:1,2017-02-02T14:15:00Z,29.2533,-90.6633,1.28,6.66,1111122 
LUMCON,ioos:station:LUMCON:101:1,2017-02-02T14:30:00Z,29.2533,-90.6633,1.28,6.56,1111122 
LUMCON,ioos:station:LUMCON:101:1,2017-02-02T14:45:00Z,29.2533,-90.6633,1.27,6.49,1111122 
LUMCON,ioos:station:LUMCON:101:1,2017-02-02T15:00:00Z,29.2533,-90.6633,1.27,6.36,1111122 
LUMCON,ioos:station:LUMCON:101:1,2017-02-02T15:15:00Z,29.2533,-90.6633,1.26,6.31,1111122 
LUMCON,ioos:station:LUMCON:101:1,2017-02-02T15:30:00Z,29.2533,-90.6633,1.26,6.23,1111122 
LUMCON,ioos:station:LUMCON:101:1,2017-02-02T15:45:00Z,29.2533,-90.6633,1.26,6.19,1111122 
LUMCON,ioos:station:LUMCON:101:1,2017-02-02T16:00:00Z,29.2533,-90.6633,1.26,6.1,1111122 
LUMCON,ioos:station:LUMCON:101:1,2017-02-02T16:15:00Z,29.2533,-90.6633,1.26,6.04,1111122 
LUMCON,ioos:station:LUMCON:101:1,2017-02-02T16:30:00Z,29.2533,-90.6633,1.25,6.03,1111122 
LUMCON,ioos:station:LUMCON:101:1,2017-02-02T16:45:00Z,29.2533,-90.6633,1.26,5.99,1111122 
LUMCON,ioos:station:LUMCON:101:1,2017-02-02T17:00:00Z,29.2533,-90.6633,1.26,5.96,1111122 
LUMCON,ioos:station:LUMCON:101:1,2017-02-02T17:15:00Z,29.2533,-90.6633,1.26,6.0,1111122 
LUMCON,ioos:station:LUMCON:101:1,2017-02-02T17:30:00Z,29.2533,-90.6633,1.27,6.91,1111122 
LUMCON,ioos:station:LUMCON:101:1,2017-02-02T17:45:00Z,29.2533,-90.6633,1.27,8.19,1111122 
LUMCON,ioos:station:LUMCON:101:1,2017-02-02T18:00:00Z,29.2533,-90.6633,1.27,8.1,1111122 
LUMCON,ioos:station:LUMCON:101:1,2017-02-02T18:15:00Z,29.2533,-90.6633,1.27,8.58,1111122 
LUMCON,ioos:station:LUMCON:101:1,2017-02-02T18:30:00Z,29.2533,-90.6633,1.27,8.22,1111122 
LUMCON,ioos:station:LUMCON:101:1,2017-02-02T18:45:00Z,29.2533,-90.6633,1.28,7.49,1111122 
LUMCON,ioos:station:LUMCON:101:1,2017-02-02T19:00:00Z,29.2533,-90.6633,1.28,7.59,1111122 
LUMCON,ioos:station:LUMCON:101:1,2017-02-02T19:15:00Z,29.2533,-90.6633,1.29,7.67,1111122 
LUMCON,ioos:station:LUMCON:101:1,2017-02-02T19:30:00Z,29.2533,-90.6633,1.29,7.65,1111122 
LUMCON,ioos:station:LUMCON:101:1,2017-02-02T19:45:00Z,29.2533,-90.6633,1.3,7.76,1111122 
LUMCON,ioos:station:LUMCON:101:1,2017-02-02T20:00:00Z,29.2533,-90.6633,1.3,8.23,1111122 
LUMCON,ioos:station:LUMCON:101:1,2017-02-02T20:15:00Z,29.2533,-90.6633,1.31,8.45,1111122 
LUMCON,ioos:station:LUMCON:101:1,2017-02-02T20:30:00Z,29.2533,-90.6633,1.31,8.62,1111122 
LUMCON,ioos:station:LUMCON:101:1,2017-02-02T20:45:00Z,29.2533,-90.6633,1.31,8.71,1111122 
LUMCON,ioos:station:LUMCON:101:1,2017-02-02T21:00:00Z,29.2533,-90.6633,1.32,8.81,1111122 
LUMCON,ioos:station:LUMCON:101:1,2017-02-02T21:15:00Z,29.2533,-90.6633,1.33,8.71,1111122 
LUMCON,ioos:station:LUMCON:101:1,2017-02-02T21:30:00Z,29.2533,-90.6633,1.32,8.66,1111122 
LUMCON,ioos:station:LUMCON:101:1,2017-02-02T21:45:00Z,29.2533,-90.6633,1.34,8.47,1111122 
LUMCON,ioos:station:LUMCON:101:1,2017-02-02T22:00:00Z,29.2533,-90.6633,1.34,8.81,1111122 
LUMCON,ioos:station:LUMCON:101:1,2017-02-02T22:15:00Z,29.2533,-90.6633,1.35,8.96,1111122 
LUMCON,ioos:station:LUMCON:101:1,2017-02-02T22:30:00Z,29.2533,-90.6633,1.35,9.16,1111122 
LUMCON,ioos:station:LUMCON:101:1,2017-02-02T22:45:00Z,29.2533,-90.6633,1.36,9.25,1111122 
LUMCON,ioos:station:LUMCON:101:1,2017-02-02T23:00:00Z,29.2533,-90.6633,1.36,9.32,1111122 
LUMCON,ioos:station:LUMCON:101:1,2017-02-02T23:15:00Z,29.2533,-90.6633,1.35,9.16,1111122 
LUMCON,ioos:station:LUMCON:101:1,2017-02-02T23:30:00Z,29.2533,-90.6633,1.35,9.01,1111122 
LUMCON,ioos:station:LUMCON:101:1,2017-02-02T23:45:00Z,29.2533,-90.6633,1.35,8.73,1111122 
LUMCON,ioos:station:LUMCON:101:1,2017-02-03T00:00:00Z,29.2533,-90.6633,1.35,8.59,1111122 
LUMCON,ioos:station:LUMCON:101:1,2017-02-03T00:15:00Z,29.2533,-90.6633,1.35,8.63,1111122 
LUMCON,ioos:station:LUMCON:101:1,2017-02-03T00:30:00Z,29.2533,-90.6633,1.34,8.46,1111122 
LUMCON,ioos:station:LUMCON:101:1,2017-02-03T00:45:00Z,29.2533,-90.6633,1.34,8.39,1111122 
LUMCON,ioos:station:LUMCON:101:1,2017-02-03T01:00:00Z,29.2533,-90.6633,1.33,8.31,1111122 
LUMCON,ioos:station:LUMCON:101:1,2017-02-03T01:15:00Z,29.2533,-90.6633,1.33,8.44,1111122 
LUMCON,ioos:station:LUMCON:101:1,2017-02-03T01:30:00Z,29.2533,-90.6633,1.32,8.23,1111122 
LUMCON,ioos:station:LUMCON:101:1,2017-02-03T01:45:00Z,29.2533,-90.6633,1.31,8.19,1111122 
LUMCON,ioos:station:LUMCON:101:1,2017-02-03T02:00:00Z,29.2533,-90.6633,1.3,7.97,1111122 
LUMCON,ioos:station:LUMCON:101:1,2017-02-03T02:15:00Z,29.2533,-90.6633,1.29,7.93,1111122 
LUMCON,ioos:station:LUMCON:101:1,2017-02-03T02:30:00Z,29.2533,-90.6633,1.28,7.84,1111122 
LUMCON,ioos:station:LUMCON:101:1,2017-02-03T02:45:00Z,29.2533,-90.6633,1.28,7.75,1111122 
LUMCON,ioos:station:LUMCON:101:1,2017-02-03T03:00:00Z,29.2533,-90.6633,1.28,7.71,1111122 
LUMCON,ioos:station:LUMCON:101:1,2017-02-03T03:15:00Z,29.2533,-90.6633,1.27,7.47,1111122 
LUMCON,ioos:station:LUMCON:101:1,2017-02-03T03:30:00Z,29.2533,-90.6633,1.27,7.32,1111122 
LUMCON,ioos:station:LUMCON:101:1,2017-02-03T03:45:00Z,29.2533,-90.6633,1.25,7.14,1111122 
LUMCON,ioos:station:LUMCON:101:1,2017-02-03T04:00:00Z,29.2533,-90.6633,1.24,7.01,1111122 
LUMCON,ioos:station:LUMCON:101:1,2017-02-03T04:15:00Z,29.2533,-90.6633,1.24,6.77,1111122 
LUMCON,ioos:station:LUMCON:101:1,2017-02-03T04:30:00Z,29.2533,-90.6633,1.23,6.6,1111122 
LUMCON,ioos:station:LUMCON:101:1,2017-02-03T04:45:00Z,29.2533,-90.6633,1.23,6.42,1111122 
LUMCON,ioos:station:LUMCON:101:1,2017-02-03T05:00:00Z,29.2533,-90.6633,1.23,6.33,1111122 
LUMCON,ioos:station:LUMCON:101:1,2017-02-03T05:15:00Z,29.2533,-90.6633,1.22,6.13,1111122 
LUMCON,ioos:station:LUMCON:101:1,2017-02-03T05:30:00Z,29.2533,-90.6633,1.21,6.01,1111122 
LUMCON,ioos:station:LUMCON:101:1,2017-02-03T05:45:00Z,29.2533,-90.6633,1.2,5.89,1111122 
LUMCON,ioos:station:LUMCON:101:1,2017-02-03T06:00:00Z,29.2533,-90.6633,1.19,5.88,1111122 
LUMCON,ioos:station:LUMCON:101:1,2017-02-03T06:15:00Z,29.2533,-90.6633,1.18,5.78,1111122 
LUMCON,ioos:station:LUMCON:101:1,2017-02-03T06:30:00Z,29.2533,-90.6633,1.18,5.74,1111122 
LUMCON,ioos:station:LUMCON:101:1,2017-02-03T06:45:00Z,29.2533,-90.6633,1.18,5.69,1111122 
LUMCON,ioos:station:LUMCON:101:1,2017-02-03T07:00:00Z,29.2533,-90.6633,1.18,5.74,1111122 
LUMCON,ioos:station:LUMCON:101:1,2017-02-03T07:15:00Z,29.2533,-90.6633,1.18,5.72,1111122 
LUMCON,ioos:station:LUMCON:101:1,2017-02-03T07:30:00Z,29.2533,-90.6633,1.17,5.69,1111122 
LUMCON,ioos:station:LUMCON:101:1,2017-02-03T07:45:00Z,29.2533,-90.6633,1.16,5.68,1111122 
LUMCON,ioos:station:LUMCON:101:1,2017-02-03T08:00:00Z,29.2533,-90.6633,1.16,5.67,1111122 
LUMCON,ioos:station:LUMCON:101:1,2017-02-03T08:15:00Z,29.2533,-90.6633,1.17,5.7,1111122 
LUMCON,ioos:station:LUMCON:101:1,2017-02-03T08:30:00Z,29.2533,-90.6633,1.17,5.67,1111122 
LUMCON,ioos:station:LUMCON:101:1,2017-02-03T08:45:00Z,29.2533,-90.6633,1.18,5.66,1111122 
LUMCON,ioos:station:LUMCON:101:1,2017-02-03T09:00:00Z,29.2533,-90.6633,1.19,5.68,1111122 
LUMCON,ioos:station:LUMCON:101:1,2017-02-03T09:15:00Z,29.2533,-90.6633,1.19,5.69,1111122 
LUMCON,ioos:station:LUMCON:101:1,2017-02-03T09:30:00Z,29.2533,-90.6633,1.19,6.65,1111122 
LUMCON,ioos:station:LUMCON:101:1,2017-02-03T09:45:00Z,29.2533,-90.6633,1.2,6.95,1111122 
LUMCON,ioos:station:LUMCON:101:1,2017-02-03T10:00:00Z,29.2533,-90.6633,1.2,6.83,1111122 
LUMCON,ioos:station:LUMCON:101:1,2017-02-03T10:15:00Z,29.2533,-90.6633,1.2,6.76,1111122 
LUMCON,ioos:station:LUMCON:101:1,2017-02-03T10:30:00Z,29.2533,-90.6633,1.21,6.49,1111122 
LUMCON,ioos:station:LUMCON:101:1,2017-02-03T10:45:00Z,29.2533,-90.6633,1.21,6.65,1111122 
LUMCON,ioos:station:LUMCON:101:1,2017-02-03T11:00:00Z,29.2533,-90.6633,1.21,6.58,1111122 
LUMCON,ioos:station:LUMCON:101:1,2017-02-03T11:15:00Z,29.2533,-90.6633,1.22,6.53,1111122 
LUMCON,ioos:station:LUMCON:101:1,2017-02-03T11:30:00Z,29.2533,-90.6633,1.22,6.49,1111122 
LUMCON,ioos:station:LUMCON:101:1,2017-02-03T11:45:00Z,29.2533,-90.6633,1.23,6.28,1111122 
LUMCON,ioos:station:LUMCON:101:1,2017-02-03T12:00:00Z,29.2533,-90.6633,1.24,6.28,1111122 
LUMCON,ioos:station:LUMCON:101:1,2017-02-03T12:15:00Z,29.2533,-90.6633,1.25,6.16,1111122 
LUMCON,ioos:station:LUMCON:101:1,2017-02-03T12:30:00Z,29.2533,-90.6633,1.25,6.0,1111122 
LUMCON,ioos:station:LUMCON:101:1,2017-02-03T12:45:00Z,29.2533,-90.6633,1.26,5.93,1111122 
LUMCON,ioos:station:LUMCON:101:1,2017-02-03T13:00:00Z,29.2533,-90.6633,1.26,6.0,1111122 
LUMCON,ioos:station:LUMCON:101:1,2017-02-03T13:15:00Z,29.2533,-90.6633,1.26,5.97,1111122 
LUMCON,ioos:station:LUMCON:101:1,2017-02-03T13:30:00Z,29.2533,-90.6633,1.26,6.06,1111122 
LUMCON,ioos:station:LUMCON:101:1,2017-02-03T13:45:00Z,29.2533,-90.6633,1.26,6.12,1111122 
LUMCON,ioos:station:LUMCON:101:1,2017-02-03T14:00:00Z,29.2533,-90.6633,1.25,5.78,1111122 
LUMCON,ioos:station:LUMCON:101:1,2017-02-03T14:15:00Z,29.2533,-90.6633,1.25,5.79,1111122 
LUMCON,ioos:station:LUMCON:101:1,2017-02-03T14:30:00Z,29.2533,-90.6633,1.24,5.78,1111122 
LUMCON,ioos:station:LUMCON:101:1,2017-02-03T15:00:00Z,29.2533,-90.6633,1.25,5.83,1111122 
LUMCON,ioos:station:LUMCON:101:1,2017-02-03T15:15:00Z,29.2533,-90.6633,1.25,5.89,1111122 
LUMCON,ioos:station:LUMCON:101:1,2017-02-03T15:30:00Z,29.2533,-90.6633,1.25,5.99,1111122 
LUMCON,ioos:station:LUMCON:101:1,2017-02-03T15:45:00Z,29.2533,-90.6633,1.25,5.93,1111122 
LUMCON,ioos:station:LUMCON:101:1,2017-02-03T16:00:00Z,29.2533,-90.6633,1.24,5.92,1111122 
LUMCON,ioos:station:LUMCON:101:1,2017-02-03T16:15:00Z,29.2533,-90.6633,1.25,5.91,1111122 
LUMCON,ioos:station:LUMCON:101:1,2017-02-03T16:30:00Z,29.2533,-90.6633,1.24,5.92,1111122 
LUMCON,ioos:station:LUMCON:101:1,2017-02-03T16:45:00Z,29.2533,-90.6633,1.23,5.93,1111122 
LUMCON,ioos:station:LUMCON:101:1,2017-02-03T17:00:00Z,29.2533,-90.6633,1.24,6.01,1111122 
LUMCON,ioos:station:LUMCON:101:1,2017-02-03T17:15:00Z,29.2533,-90.6633,1.23,5.99,1111122 
LUMCON,ioos:station:LUMCON:101:1,2017-02-03T17:30:00Z,29.2533,-90.6633,1.22,5.93,1111122 
LUMCON,ioos:station:LUMCON:101:1,2017-02-03T17:45:00Z,29.2533,-90.6633,1.22,5.88,1111122 
LUMCON,ioos:station:LUMCON:101:1,2017-02-03T18:00:00Z,29.2533,-90.6633,1.21,5.8,1111122 
LUMCON,ioos:station:LUMCON:101:1,2017-02-03T18:15:00Z,29.2533,-90.6633,1.2,5.74,1111122 
LUMCON,ioos:station:LUMCON:101:1,2017-02-03T18:30:00Z,29.2533,-90.6633,1.19,5.67,1111122 